User: anonymous   Login
Location: Bagnara
(41.0500°N, 14.7833°E)
Time: 12:00:59
(UTC+00:00)
Language:

Cosmos 1782 - Orbit

View from above orbital plane
View from above orbital plane
View from above satellite
View from above satellite

Ground track
Ground track

The orbit data is extracted from the following two-line orbital elements,

1 16986U 86074A   21260.67271858  .00000375  00000-0  22629-4 0  9990
2 16986  82.5044  48.7633 0014220  71.7146 288.5628 15.07648715883654
Epoch (UTC): 17 September 2021 16:08:42
Eccentricity: 0.0014220
inclination: 82.5044°
perigee height: 533 km
apogee height: 553 km
right ascension of ascending node: 48.7633°
argument of perigee: 71.7146°
revolutions per day: 15.07648715
mean anomaly at epoch: 288.5628°
orbit number at epoch: 88365

The dashed part of the orbit path shows where the satellite is in the earth's shadow,  

DLR